KEPLER-13 (LUCKY) (47454 NORAD) Tracking and Keplerian Element Data

This shows tracking and keplerian element data for the satellite.

Feedback or suggestion? Click here.




ElementValue
Catalog47454
NameKEPLER-13 (LUCKY)
Epoch Orbit1199
Epoch Day101.93058852
Epoch Year2021
RAAN164.2909
Inclination97.4932
Eccentricity0.0010252
Argument of Perigee333.6825
Mean Anonmoly26.3884
Mean Motion15.12727973
Decay Rate6.39E-06
L11 47454U 21006AT 21101.93058852 .00000639 00000-0 40143-4 0 9992
L22 47454 97.4932 164.2909 0010252 333.6825 26.3884 15.12727973 11996

Live tracking and technical data element details for KEPLER-13 (LUCKY) (NORAD 47454). KEPLER-13 (LUCKY) can be tracked NOW for your location showing map with azimuth and elevation plus other details from your city location.

Track the satellite on the map from your city or location and see movement details for azimuth, elevation, latitude, longitude, range, height, and movement on the map or in text.







IsCatalogInMostPopularTable: catalog: 47454, numindb: 14
Update: records affected: 1



GetName: 47454 KEPLER-13 (LUCKY)

Hit Count: updated at: Tue, 13 Apr 2021 05:16:50 GMT